AISSAT 1 (36797 NORAD) Tracking and Keplerian Element Data

This shows tracking and keplerian element data for the satellite.

Feedback or suggestion? Click here.




ElementValue
Catalog36797
NameAISSAT 1
Epoch Orbit54060
Epoch Day186.16466196
Epoch Year2020
RAAN335.4509
Inclination98.1748
Eccentricity0.0010479
Argument of Perigee336.2085
Mean Anonmoly23.8644
Mean Motion14.86319138
Decay Rate4.7E-07
L11 36797U 10035C 20186.16466196 .00000047 00000-0 11938-4 0 9994
L22 36797 98.1748 335.4509 0010479 336.2085 23.8644 14.86319138540604

Live tracking and technical data element details for AISSAT 1 (NORAD 36797). AISSAT 1 can be tracked NOW for your location showing map with azimuth and elevation plus other details from your city location.

Track the satellite on the map from your city or location and see movement details for azimuth, elevation, latitude, longitude, range, height, and movement on the map or in text.







IsCatalogInMostPopularTable: catalog: 36797, numindb: 674
Update: records affected: 1



GetName: 36797 AISSAT 1

Hit Count: updated at: Sun, 05 Jul 2020 16:28:57 GMT